Theta_e
321 320 322 322 322 322 322 328 327 328 331 324 321 320 318 321 323 322 322 322 321 323 324 321 322 320 319 320 319 318 321 326 326 326 323 329 329 324 328 323 326 326 324 330 332 336 338 341 342 343 344 343 344 343 343 343 342 342 342 342 341 341 341 340 337 334 333 333 335 336 336 336 336 337 336 337 336 336 336 336 337 337 337 339 339 339 339 340 337 333 332 332 330 329 329 329 329
323 322 322 321 322 321 324 331 331 332 330 318 316 319 317 320 321 322 327 325 323 323 324 322 322 322 321 320 318 318 319 322 323 323 327 329 325 324 325 323 326 326 326 331 333 335 337 340 342 344 343 343 343 342 343 342 342 342 341 342 341 340 340 341 337 334 334 331 332 336 336 336 335 336 336 336 336 335 335 334 335 335 337 338 339 339 339 340 338 335 334 333 332 330 330 330 329
322 322 322 322 321 323 333 333 329 332 327 316 317 326 321 317 323 326 329 328 327 323 323 321 320 322 321 321 319 319 321 321 319 328 336 328 323 324 323 323 324 327 327 330 335 335 336 338 340 343 342 342 342 342 343 342 342 342 342 341 340 340 340 341 338 335 335 333 333 335 336 336 335 335 336 335 334 335 335 333 332 334 335 336 338 339 339 339 338 337 335 334 333 333 331 329 327
321 323 322 322 323 329 346 337 336 336 323 319 317 324 326 321 328 330 328 327 326 322 322 321 321 320 319 323 319 317 321 320 317 328 337 325 323 323 320 322 323 327 329 331 336 335 335 337 339 342 342 342 342 342 342 341 342 341 341 341 340 341 341 341 338 337 336 336 335 335 335 336 335 335 335 334 333 333 332 330 331 332 333 336 338 339 339 338 338 337 335 334 333 332 333 332 329
320 323 320 319 323 328 339 331 334 333 321 325 317 319 335 332 330 329 326 322 324 324 322 322 322 318 317 322 320 320 321 320 317 321 327 322 323 322 320 322 322 327 330 331 334 336 335 335 338 340 342 342 341 342 341 342 341 341 341 340 340 340 341 340 339 337 337 336 336 336 336 336 335 335 334 334 334 331 328 328 330 330 332 336 337 338 338 338 337 336 334 333 331 330 331 333 333
321 322 319 318 317 319 330 323 320 325 327 331 318 323 339 334 328 325 324 320 323 323 320 321 321 319 320 321 319 319 320 318 317 321 323 322 324 322 320 321 323 328 330 332 333 335 335 334 336 339 341 341 341 341 341 341 340 341 340 340 340 340 340 340 339 337 337 336 336 337 336 335 335 335 336 335 334 332 330 329 329 330 333 336 337 338 338 338 336 335 333 332 331 329 328 331 333
321 320 324 326 320 322 334 325 321 326 324 323 319 324 330 328 323 320 321 320 321 320 318 320 319 319 320 319 317 317 318 319 318 321 324 324 325 322 320 322 325 329 330 332 333 334 334 334 335 337 341 340 340 341 341 340 340 341 340 340 339 339 340 339 338 337 337 337 336 337 336 336 336 337 337 336 334 333 333 332 330 331 334 336 336 337 337 336 335 334 332 330 330 327 326 327 330
321 321 327 336 335 335 337 326 328 331 320 319 320 320 323 324 321 319 322 320 319 320 321 322 320 320 319 317 320 319 317 322 320 321 324 324 324 320 321 321 323 328 330 332 333 335 334 334 334 336 339 340 340 340 341 340 340 340 340 340 339 339 339 339 337 336 337 337 337 336 336 337 338 338 338 337 334 334 334 334 333 332 334 336 336 337 336 335 333 332 331 329 327 322 322 323 327
319 319 325 333 335 338 336 324 323 325 323 322 320 321 322 321 320 320 321 320 319 321 322 322 320 319 320 319 324 321 318 323 321 322 324 323 323 320 321 321 322 326 330 333 334 335 335 335 334 335 337 339 340 340 341 340 340 340 340 340 339 339 339 338 336 336 337 337 337 336 337 338 338 339 338 337 335 334 334 334 335 333 334 335 335 335 334 333 332 331 330 329 326 324 323 321 322
321 320 325 334 335 332 327 322 323 322 324 324 319 322 322 319 319 320 321 319 319 320 320 319 318 320 320 320 324 320 319 322 321 323 323 323 323 321 321 323 324 326 329 333 334 335 335 335 334 335 336 337 339 340 340 340 340 339 340 339 338 339 338 337 336 335 336 337 336 335 338 337 338 338 337 338 336 334 334 334 335 334 333 333 333 334 333 332 331 330 329 328 328 326 321 314 310
328 329 333 340 334 324 318 322 330 331 329 325 322 324 321 319 319 320 321 317 317 319 319 318 319 322 319 321 327 320 319 323 321 321 323 323 322 321 322 323 325 327 329 331 334 336 336 336 335 335 335 336 338 339 339 339 340 339 340 339 338 338 337 335 335 336 336 337 335 335 337 337 338 337 337 338 337 335 334 334 334 334 333 332 332 332 333 332 330 330 329 329 328 325 318 309 301
327 334 346 346 328 320 321 325 331 336 336 326 321 321 318 318 319 318 319 316 317 318 319 318 318 320 319 323 327 318 316 322 321 319 321 321 320 321 322 323 325 327 329 330 333 336 336 336 335 335 335 336 337 338 339 338 339 339 339 338 338 338 337 334 335 336 336 336 334 334 336 336 337 337 337 338 337 335 334 334 333 334 334 332 331 331 331 330 329 328 328 328 327 327 321 307 298
334 333 340 331 322 323 322 324 329 334 333 324 319 319 316 316 318 316 318 318 317 317 317 319 317 317 319 320 323 322 318 320 321 319 318 319 320 321 321 324 326 326 329 331 333 335 336 336 334 334 335 336 337 338 338 337 338 339 339 338 338 338 336 335 336 336 336 336 334 333 334 335 337 337 337 337 338 336 334 334 333 333 333 332 330 329 328 328 328 326 327 327 326 326 319 303 297
333 335 334 318 321 327 320 320 327 327 320 319 321 320 318 316 317 317 318 318 319 318 315 316 316 316 317 316 325 332 321 317 320 319 317 317 319 320 320 324 327 329 329 331 332 334 335 336 335 334 334 336 338 338 338 337 336 337 338 338 338 338 336 335 336 337 336 336 334 334 335 335 337 337 337 337 338 337 335 334 333 333 332 332 330 328 327 327 327 326 327 326 326 325 313 299 298
324 339 341 324 324 326 318 319 324 322 317 319 318 316 319 316 316 319 317 317 319 317 312 313 314 315 317 314 322 325 316 316 320 319 319 318 318 319 321 323 328 331 330 331 333 334 334 335 336 335 334 335 337 338 338 337 337 336 337 338 338 337 336 335 336 337 337 336 335 335 335 335 336 337 338 337 337 337 336 335 334 333 332 331 330 329 327 326 325 325 326 325 325 322 308 298 298
327 339 336 323 322 319 316 320 322 322 321 323 319 315 318 317 315 317 316 315 316 315 313 315 313 314 317 316 317 316 313 317 319 319 320 319 319 319 321 323 326 329 329 330 332 333 334 335 336 337 336 335 336 337 338 337 337 336 337 338 338 338 337 336 336 335 336 336 335 335 335 335 336 337 338 338 337 337 336 335 334 333 332 331 329 328 326 325 324 323 324 324 323 319 307 298 298
333 338 332 322 319 318 319 322 322 321 325 328 323 317 316 317 317 315 313 313 317 317 316 317 314 313 317 317 315 313 314 317 318 321 321 321 320 321 322 324 327 328 328 328 329 331 333 334 334 336 337 336 336 336 337 338 337 337 337 338 338 338 337 336 336 335 335 335 335 335 335 335 336 337 337 337 337 336 336 335 334 333 332 331 329 328 327 325 323 322 321 321 321 317 306 298 297
338 336 326 321 323 325 326 328 325 320 321 323 320 316 314 316 318 315 313 315 320 319 316 315 313 313 313 314 313 312 313 316 318 321 322 322 323 324 324 323 327 328 326 326 326 329 332 333 333 335 337 337 337 336 336 337 338 338 338 338 339 338 338 337 336 336 336 336 336 335 334 334 335 336 337 337 337 337 336 336 334 333 332 331 329 328 327 325 323 322 321 320 319 315 306 298 297
339 333 319 325 335 330 328 330 326 319 318 319 319 317 314 315 316 314 314 319 320 318 316 314 315 315 312 311 313 312 314 316 319 321 323 324 324 325 324 322 325 325 325 325 325 326 329 331 333 333 335 337 338 337 337 337 338 338 338 338 339 339 338 337 337 337 336 336 337 336 335 334 334 334 336 336 336 336 336 336 335 333 333 331 330 328 327 325 324 323 321 320 317 313 306 298 297
331 328 321 335 338 328 327 326 322 320 317 317 319 316 315 316 315 314 315 318 318 317 317 315 316 316 313 312 312 311 314 316 319 321 322 321 322 323 323 322 322 323 324 324 324 326 329 330 331 332 334 337 338 338 337 337 337 338 338 337 338 339 338 338 338 337 337 336 337 337 335 334 334 334 335 336 335 335 336 336 335 333 333 331 329 328 326 325 324 323 322 320 315 310 304 298 297
320 322 328 335 326 321 325 325 322 321 317 315 316 316 316 315 314 315 316 317 318 317 317 316 315 315 314 312 310 310 312 316 319 321 321 320 320 320 320 320 319 320 320 321 322 325 329 331 332 332 334 336 337 338 338 337 337 337 337 336 337 338 339 339 338 337 337 337 337 336 335 334 334 335 335 334 335 335 335 335 335 334 333 331 329 328 327 325 324 323 322 321 314 306 301 297 297
319 323 329 330 321 318 322 325 321 317 316 315 316 317 315 314 315 316 316 316 317 317 316 316 315 313 312 311 309 308 309 312 313 314 316 315 314 314 314 314 314 315 316 317 318 320 323 327 330 333 334 335 336 336 337 337 337 337 337 336 336 336 338 339 339 338 337 338 337 336 335 334 334 335 334 334 335 335 335 335 335 334 332 331 329 328 327 326 325 324 322 321 316 305 299 297 297
320 325 326 327 321 318 321 322 320 317 315 316 316 315 313 314 316 317 317 316 317 316 316 315 313 309 309 309 307 308 310 307 305 306 307 307 307 308 308 309 310 312 313 315 316 317 319 320 324 329 331 333 334 335 336 336 337 336 336 336 336 336 336 337 339 339 338 337 337 336 335 334 334 335 334 334 334 334 335 335 334 334 332 330 330 328 327 326 325 324 323 321 318 308 300 297 297
319 324 324 323 319 319 322 321 320 318 315 315 314 312 313 314 315 316 316 315 315 314 312 310 308 305 306 308 307 307 308 305 304 305 305 304 304 305 306 307 308 310 312 313 314 315 317 318 319 321 325 328 330 333 334 335 335 335 335 335 336 337 336 336 336 338 339 338 336 336 334 333 334 334 334 334 335 334 334 334 334 334 332 331 330 328 327 327 325 325 323 322 319 313 303 297 296
320 323 323 320 317 320 322 319 319 318 315 314 312 313 315 313 312 314 314 315 314 312 311 309 308 307 306 308 307 306 305 304 304 304 304 304 304 305 306 307 308 309 310 311 312 313 315 317 318 319 320 322 326 330 332 333 333 334 334 334 334 335 336 336 336 336 337 338 337 336 334 333 333 334 333 332 335 336 335 334 334 333 332 331 330 329 327 327 326 325 323 322 320 316 308 299 296
320 322 320 317 316 317 317 317 317 315 315 313 312 315 315 312 311 314 317 316 313 313 313 313 314 312 308 306 306 304 304 303 302 302 303 302 303 305 305 306 307 308 309 311 312 313 315 316 317 319 320 321 323 327 329 330 331 332 333 333 333 333 333 334 336 337 337 337 337 336 334 333 333 334 332 331 334 336 335 334 334 333 332 330 330 329 328 327 326 325 323 322 320 318 313 303 297
316 318 316 315 315 314 315 317 315 312 313 313 313 315 314 312 312 316 320 316 312 314 313 312 314 312 307 305 304 302 302 301 301 301 301 301 302 302 303 305 306 307 310 312 314 315 316 316 317 319 321 322 323 325 326 328 330 330 331 332 333 332 332 331 332 334 336 337 336 336 335 334 334 333 332 332 333 334 333 333 333 332 331 330 330 329 328 327 326 325 323 322 321 318 316 310 300
313 314 314 316 316 314 315 315 314 312 313 314 314 315 315 311 312 319 318 313 311 313 312 310 311 310 306 304 303 301 301 300 300 300 300 300 300 300 301 302 304 307 309 311 315 317 317 317 317 319 322 324 324 325 326 328 328 329 330 331 332 332 331 331 330 331 333 335 335 334 334 334 335 334 333 332 332 332 332 332 332 331 331 330 330 328 328 327 326 324 323 321 320 318 317 316 307
313 313 314 318 318 317 316 314 314 312 314 315 314 315 318 315 317 322 315 311 313 312 312 309 307 307 306 303 302 300 300 299 299 299 299 299 299 300 300 301 302 306 308 310 315 318 319 318 318 319 322 325 326 327 328 329 329 330 331 331 332 332 332 332 331 331 332 333 333 333 332 332 332 334 334 334 333 332 331 331 332 331 331 330 329 328 327 327 326 324 323 321 320 319 318 318 314
314 313 312 316 318 321 317 312 312 313 314 315 313 316 326 325 322 321 312 309 314 313 311 308 306 307 305 303 301 300 299 299 298 298 298 298 299 299 300 301 302 305 308 311 315 318 320 321 321 321 322 325 326 327 328 329 330 330 331 331 332 332 332 333 332 332 332 332 332 332 332 331 331 331 332 333 333 333 332 331 331 331 330 330 329 328 327 326 325 324 323 322 320 319 318 318 317
315 311 316 319 316 326 324 312 314 315 313 313 312 317 325 325 323 319 310 309 314 313 311 309 307 306 304 303 301 300 299 298 298 297 298 298 298 299 299 301 302 305 308 310 313 316 319 321 322 323 324 326 326 327 328 328 329 329 330 331 331 332 332 332 332 333 332 333 333 332 333 332 332 331 330 330 331 332 333 331 331 331 330 329 328 327 326 326 325 324 323 321 320 319 318 317 318
323 314 324 328 317 325 327 314 315 316 312 310 312 318 321 319 321 319 310 309 314 311 311 310 307 305 303 302 300 299 299 297 298 297 297 298 297 298 299 300 302 303 306 308 311 314 317 320 322 323 324 325 326 326 327 328 329 329 330 330 330 331 330 331 331 332 332 333 333 333 333 333 332 332 331 331 330 331 332 331 331 330 330 329 327 327 326 325 324 323 322 321 320 318 317 317 317
329 318 323 331 321 320 322 316 316 316 313 311 311 317 319 318 321 320 311 311 313 310 312 310 305 304 301 300 299 299 298 297 297 296 296 297 297 297 298 299 301 302 304 307 310 312 314 317 320 321 322 323 324 325 326 326 328 328 329 329 329 329 329 329 329 329 330 331 332 332 332 332 332 332 331 331 331 330 330 331 331 330 330 328 327 326 325 324 323 323 322 321 319 318 317 317 316
330 321 318 325 321 318 319 319 317 315 315 314 313 314 315 317 318 316 312 311 312 310 312 309 304 303 301 300 299 298 298 297 296 296 296 296 296 297 297 299 300 302 304 306 308 310 311 314 316 318 320 322 323 323 324 324 325 326 326 326 326 326 326 327 327 327 328 328 329 329 330 330 330 330 330 330 330 330 330 330 330 330 329 328 327 325 324 324 323 322 321 320 319 318 317 317 316
330 324 320 323 321 318 318 319 318 317 317 316 316 316 316 316 315 314 311 310 313 311 309 306 303 302 301 300 299 298 298 297 296 295 295 295 296 296 297 298 300 302 304 305 307 308 310 311 312 314 316 318 320 321 322 322 323 323 323 324 323 323 323 323 324 324 324 325 325 326 327 327 327 328 328 328 328 329 329 329 329 329 328 327 326 325 324 323 323 322 321 320 319 317 317 316 316
326 324 323 325 323 320 318 318 318 315 314 317 317 317 318 317 316 314 309 310 316 313 307 304 302 301 300 299 299 298 297 297 296 295 295 295 295 295 296 297 299 301 303 304 306 307 307 308 310 311 312 313 315 318 319 320 321 320 321 321 320 319 320 320 320 320 320 321 321 322 322 322 323 324 324 324 324 324 325 325 326 326 326 325 325 324 324 323 323 322 321 320 318 317 316 316 315
318 319 320 320 320 319 316 316 318 313 314 320 317 317 319 318 317 313 307 313 317 311 307 304 302 301 300 300 299 298 297 297 296 295 294 294 294 294 295 295 297 300 301 302 304 304 305 306 307 307 308 310 311 312 314 316 317 317 317 316 315 315 316 317 316 315 316 315 316 317 317 317 317 318 319 319 319 319 320 320 320 320 321 321 321 321 322 322 322 321 320 319 317 316 316 315 314
314 316 317 318 318 317 315 315 315 313 314 320 317 317 320 318 316 311 308 314 312 306 305 303 301 301 300 299 299 298 298 296 295 294 294 293 293 293 293 294 295 296 297 298 300 302 303 304 305 305 306 307 308 309 310 311 311 312 312 311 311 312 312 312 311 311 311 311 312 312 312 312 312 313 313 314 314 315 315 315 315 316 316 317 317 317 317 317 318 318 317 317 315 314 314 313 311
314 316 316 319 319 318 319 317 314 313 316 322 320 317 318 316 314 309 306 307 304 302 303 302 301 300 299 299 298 297 297 296 295 294 293 293 292 293 293 293 293 293 294 295 297 300 302 303 303 304 305 305 306 306 307 307 307 308 309 309 309 309 308 308 308 308 308 308 308 307 307 307 308 308 308 309 310 310 310 311 311 312 312 313 313 313 313 314 314 314 313 313 312 310 310 309 308
318 319 318 322 320 319 324 321 316 315 314 319 319 316 318 316 312 308 305 304 302 301 301 300 300 299 299 298 297 297 296 296 295 294 293 292 292 292 292 292 292 292 293 293 295 297 298 300 301 302 303 304 304 305 305 305 306 306 306 307 307 307 306 306 306 306 306 306 305 304 304 304 304 305 305 306 306 306 306 307 307 308 309 309 310 310 310 311 311 311 311 310 309 307 307 307 306
323 322 319 321 320 319 323 321 318 318 316 316 316 320 326 324 318 311 306 305 303 302 301 301 300 299 299 297 296 296 295 295 295 294 292 291 291 291 291 292 292 292 292 292 292 294 295 297 299 301 302 302 303 304 305 305 305 306 306 306 305 305 304 304 304 303 303 303 303 303 302 303 303 303 303 303 303 303 303 304 304 305 306 306 307 307 308 307 307 308 308 309 308 306 306 305 304
326 325 320 320 321 321 321 318 318 321 323 318 314 324 335 334 328 316 308 308 305 303 302 301 300 299 298 298 297 296 296 295 293 293 292 291 291 291 291 291 291 291 291 291 292 293 294 296 297 299 300 300 302 302 303 304 304 304 304 303 302 301 299 298 298 299 300 301 301 301 301 301 302 302 302 301 301 301 301 302 302 302 303 303 304 304 305 305 305 305 305 305 306 305 305 303 303
324 324 321 319 317 318 320 319 319 325 326 316 312 320 329 332 330 319 312 311 307 304 304 301 300 299 298 298 297 296 296 295 294 292 291 290 291 290 290 291 291 291 291 291 292 292 293 295 296 297 298 298 299 300 301 302 302 302 301 300 299 298 297 296 297 298 298 299 300 301 300 300 300 300 301 300 300 301 300 300 300 300 301 301 301 301 302 302 302 303 303 303 303 303 303 302 302
326 322 321 322 320 320 322 320 321 323 321 320 319 317 319 324 324 317 314 313 309 306 305 302 301 299 299 298 297 297 296 295 294 293 291 290 290 290 290 290 290 290 291 291 292 292 293 294 295 296 296 296 297 297 298 299 299 298 298 298 297 296 296 295 296 297 297 298 298 298 299 299 299 300 300 300 300 300 300 300 300 300 300 300 300 300 300 300 300 300 301 301 301 301 301 301 301
325 319 319 322 322 324 325 321 322 319 314 323 327 317 316 323 325 318 312 313 313 309 306 303 301 299 299 298 297 297 296 295 293 293 291 290 290 290 290 290 290 290 291 291 291 292 292 293 295 295 295 295 295 296 297 297 297 296 296 296 295 294 294 294 295 295 295 296 295 295 295 296 296 297 297 298 298 298 298 299 299 299 299 299 299 299 299 299 299 299 299 299 299 299 299 299 299
319 315 317 321 321 322 324 323 323 318 315 323 326 318 317 325 330 323 313 313 317 313 307 303 301 300 299 299 298 297 296 295 293 291 290 290 290 290 290 290 290 290 290 291 291 292 292 293 294 295 294 294 294 295 295 295 295 296 295 295 294 293 293 294 294 294 293 293 293 292 292 292 292 293 293 294 294 295 296 296 297 297 298 298 299 299 299 299 298 298 298 298 298 298 298 298 298
313 315 319 323 323 321 322 323 320 317 321 325 322 317 317 322 328 324 315 313 312 310 307 303 301 300 299 299 298 297 296 296 294 291 289 290 290 290 290 290 290 290 291 291 291 292 292 292 293 293 292 292 293 293 293 293 293 293 293 293 292 292 292 292 291 290 290 290 289 289 289 289 289 289 289 289 290 291 292 293 294 295 296 297 297 297 297 297 298 298 298 298 297 297 297 297 297
315 320 323 324 326 323 323 325 321 321 327 324 317 314 315 320 325 319 313 306 303 305 306 303 301 301 300 299 298 297 296 296 295 293 290 289 289 289 289 289 289 290 291 291 291 291 291 291 292 292 291 291 291 291 291 291 291 291 291 290 290 289 289 289 288 287 287 287 287 287 287 287 287 287 286 286 286 287 288 288 289 291 292 293 294 294 295 295 296 296 297 296 297 297 296 296 297
319 322 324 325 325 322 324 325 322 323 324 317 314 314 315 320 321 315 310 304 300 301 303 302 301 300 300 300 298 297 296 296 295 294 291 289 289 289 289 289 289 289 290 290 290 290 290 290 291 290 289 289 289 289 289 289 289 289 288 288 288 288 287 287 286 286 286 286 286 286 286 286 286 286 286 286 285 285 286 286 286 286 287 288 289 290 291 292 293 294 294 294 295 295 295 295 295
318 320 325 326 324 323 326 324 318 319 319 312 311 314 317 321 317 310 306 302 298 298 300 301 300 299 300 299 298 297 296 295 295 294 291 288 289 289 289 289 288 288 289 289 289 289 289 289 289 289 288 288 288 288 288 288 287 287 287 287 286 286 286 286 286 285 285 285 285 286 286 286 286 286 286 286 286 286 286 286 285 285 285 285 285 286 287 287 288 289 290 291 292 293 293 294 294
315 319 321 322 326 328 326 324 321 321 320 314 310 314 323 324 313 304 302 299 297 298 299 300 299 298 299 298 298 298 296 295 294 293 290 288 289 289 289 289 288 288 288 288 288 289 289 288 288 288 287 287 287 287 287 287 286 286 286 286 286 286 286 285 286 286 286 286 286 286 286 286 287 287 287 287 287 287 287 286 286 286 286 286 286 285 285 285 285 286 286 287 288 289 290 292 293
314 314 317 319 323 324 320 319 319 318 320 318 315 318 322 317 307 301 301 299 298 298 298 299 300 299 298 299 298 298 297 295 294 294 291 289 289 290 289 289 288 288 288 288 288 288 288 288 287 287 287 286 287 286 286 286 286 286 285 285 285 285 286 286 286 286 286 287 287 287 287 287 287 287 287 287 287 287 287 287 287 287 287 287 287 287 287 286 286 286 285 285 285 286 286 288 289
315 313 319 319 316 318 320 318 314 313 318 319 317 320 317 311 308 303 301 301 300 298 298 299 300 299 299 299 299 298 297 296 295 294 291 289 290 290 289 289 288 288 288 287 287 287 287 288 287 287 287 287 287 286 286 286 286 286 285 285 286 286 286 286 286 287 287 287 287 287 287 287 287 287 287 287 287 287 287 287 287 287 288 288 288 288 288 288 287 287 287 287 287 286 286 285 285
317 318 321 316 313 319 321 321 320 318 319 319 317 319 318 316 315 306 301 303 301 299 300 300 299 299 300 300 299 298 298 296 295 293 289 289 290 290 289 289 288 288 287 287 287 287 287 287 287 287 287 287 286 286 286 286 286 286 285 286 286 286 286 287 287 287 287 287 287 287 287 287 286 287 287 287 287 287 287 287 287 287 287 287 287 288 288 288 288 288 288 288 287 287 287 287 286
316 319 316 314 318 322 319 319 323 321 320 322 322 318 316 317 316 312 309 306 303 302 301 300 300 300 300 301 300 299 298 296 295 294 290 289 290 290 290 289 288 287 287 287 287 287 287 287 287 287 287 286 286 286 286 286 286 286 286 286 286 287 287 287 287 287 287 288 287 287 287 287 287 287 287 287 287 287 287 287 287 287 287 287 287 287 287 287 287 287 287 288 287 287 287 287 287
312 313 312 314 319 321 320 318 320 322 320 322 323 319 319 319 317 319 318 307 302 303 301 301 301 300 301 301 300 299 298 296 296 295 292 289 290 291 290 289 289 288 287 287 287 287 287 287 287 287 286 286 286 286 286 286 286 286 286 286 287 287 287 287 287 287 287 287 287 287 287 287 287 287 287 287 287 287 287 287 287 287 286 286 286 286 285 285 285 285 285 286 286 286 286 286 287
315 316 315 316 315 316 319 316 317 321 321 324 323 318 322 323 315 318 317 305 301 302 301 301 301 300 300 301 300 299 297 296 295 295 292 289 290 291 290 290 290 289 289 288 288 287 287 287 287 286 286 286 286 286 286 286 286 286 287 287 287 287 287 287 287 287 286 286 286 286 286 286 286 286 286 286 286 286 286 286 286 286 285 285 285 285 284 283 283 283 283 283 283 284 284 284 285
318 318 318 318 316 316 319 317 316 318 319 324 323 317 320 319 310 310 310 303 301 302 301 301 301 301 301 300 300 299 297 296 295 294 291 290 290 291 291 291 291 291 290 289 288 288 287 287 287 286 287 287 287 287 287 287 287 287 287 287 287 287 286 286 286 286 286 286 285 285 285 286 286 286 286 285 285 285 285 285 284 284 284 284 283 283 283 282 282 282 282 282 282 282 282 282 282
Wind_Speed
11 11 9 9 9 7 4 3 2 2 4 2 2 1 2 3 2 1 3 3 1 3 4 2 3 3 1 2 4 5 4 5 4 3 1 5 3 4 14 13 6 8 18 22 23 27 27 27 25 23 22 21 21 20 20 19 18 17 16 14 13 11 10 9 9 9 9 11 12 11 10 10 10 9 9 9 8 8 8 8 7 6 7 7 5 6 6 6 6 6 6 7 7 8 8 8 8
11 11 8 7 7 3 2 3 3 3 6 2 2 2 3 2 1 3 5 4 4 4 2 2 3 2 3 2 3 2 3 5 5 3 3 4 3 6 14 15 9 8 17 21 22 26 28 27 26 24 23 22 22 21 21 20 19 18 17 15 14 12 11 10 9 10 9 11 12 11 10 9 9 9 9 8 7 8 7 7 6 6 6 6 5 6 6 6 6 6 5 5 5 5 6 6 6
13 11 9 6 3 3 1 4 3 1 5 2 3 4 2 1 4 7 8 7 7 5 4 1 2 1 4 4 1 2 3 4 3 3 3 4 3 6 13 16 12 8 15 20 21 26 28 28 27 26 25 24 23 22 21 21 20 18 18 16 15 13 12 12 10 10 10 10 11 11 10 8 8 8 8 7 7 7 7 7 6 5 5 5 5 6 6 6 5 4 4 3 2 2 3 3 4
12 10 10 4 1 3 4 4 3 4 3 3 2 4 2 3 7 7 7 7 7 4 3 1 1 1 3 2 1 1 3 4 4 4 2 5 6 5 12 15 14 11 15 19 20 24 27 29 28 27 26 25 24 23 22 21 20 18 17 16 15 14 13 13 12 12 12 11 11 10 9 8 8 8 7 7 7 7 7 7 6 5 5 4 5 6 5 6 4 2 2 1 1 1 2 3 4
10 7 8 3 2 2 3 3 2 4 3 4 1 4 5 6 7 6 7 6 5 2 1 1 1 2 1 1 2 1 3 3 3 6 3 4 7 6 10 14 14 13 16 18 20 23 26 29 29 28 27 25 24 23 23 22 21 19 18 17 16 15 14 13 13 13 13 12 12 10 9 9 8 7 7 7 7 7 8 8 7 6 5 4 5 5 5 5 3 1 1 2 2 2 4 6 7
9 5 5 5 3 1 3 3 2 0 4 5 2 5 6 6 6 5 6 5 3 3 2 1 1 1 1 2 2 3 4 0 1 5 4 4 7 7 10 13 13 13 16 18 19 22 25 28 29 29 28 26 24 23 24 23 22 20 19 18 17 16 15 14 14 14 14 13 12 11 10 9 8 7 7 7 7 7 8 8 8 7 6 5 5 5 5 4 2 0 1 2 4 5 5 7 8
9 5 3 5 2 2 4 3 3 2 2 5 3 4 6 6 4 2 4 3 2 3 0 1 1 2 1 3 2 4 4 3 2 3 4 6 8 8 10 12 12 13 16 17 18 21 23 27 29 29 29 27 24 23 24 23 22 21 20 19 18 17 16 15 15 14 14 13 13 12 11 9 9 8 8 8 8 7 7 8 8 7 6 4 4 5 4 3 1 1 1 2 6 7 6 8 9
9 4 1 4 2 3 4 2 3 2 1 3 4 4 6 6 3 1 1 0 1 3 2 1 2 1 2 3 2 5 3 5 6 4 5 8 9 9 11 11 12 13 16 17 18 19 21 25 28 29 29 28 26 24 24 24 23 21 20 20 19 19 18 17 17 16 15 14 13 12 11 10 10 10 9 9 8 8 7 7 7 8 7 5 5 5 4 2 1 2 2 4 8 8 7 8 8
6 4 1 3 2 3 3 1 2 3 3 4 4 4 5 4 3 1 0 1 1 2 4 3 2 0 4 5 3 5 3 4 5 5 7 8 9 9 10 10 11 12 15 17 17 18 20 24 28 29 29 28 27 25 25 24 24 23 21 21 20 19 19 19 18 17 17 15 14 13 12 11 11 11 10 10 9 8 8 7 7 8 7 7 7 7 6 3 2 4 5 5 9 12 11 8 7
4 4 1 2 3 3 3 1 2 2 4 4 4 7 5 2 2 0 2 1 1 2 5 1 1 1 3 4 5 3 3 4 2 4 7 8 9 10 10 10 10 11 13 15 17 18 19 22 26 29 30 29 28 27 26 25 24 24 22 21 20 20 20 20 19 18 18 17 15 15 14 13 13 13 12 12 10 9 8 8 8 7 7 8 7 8 7 5 4 4 8 9 12 14 11 9 7
2 4 2 4 4 2 0 2 4 4 6 5 5 7 5 2 1 2 2 1 2 3 3 2 1 2 1 4 4 2 4 5 3 4 6 8 9 10 10 10 10 11 12 13 15 17 18 20 25 29 30 30 29 28 27 26 25 25 24 22 21 21 21 21 21 20 19 18 17 16 16 14 14 13 13 14 12 11 10 9 8 7 6 6 6 7 8 8 6 6 10 12 12 11 10 9 6
2 4 4 4 3 1 2 2 5 6 7 4 3 3 2 2 1 1 1 1 1 3 4 1 1 2 1 4 4 4 7 5 4 4 6 8 8 10 11 11 11 12 12 12 14 16 16 19 23 28 30 30 29 29 29 27 26 27 26 23 22 22 22 22 22 21 20 19 18 18 17 16 15 14 14 15 14 13 12 10 9 7 7 6 6 8 9 8 7 9 12 12 11 12 11 8 5
3 1 4 3 2 2 2 2 4 5 6 3 3 3 1 1 1 3 3 0 2 2 4 5 3 3 0 4 4 6 7 3 5 6 6 7 8 10 12 14 13 13 13 14 15 15 16 18 21 26 30 30 30 30 30 28 28 28 27 25 24 23 23 23 23 22 22 20 20 19 18 17 16 15 15 16 15 15 13 12 10 10 9 7 8 8 8 7 7 11 13 12 12 13 11 7 4
2 3 4 2 1 1 2 1 2 2 2 3 3 4 3 1 2 2 4 2 5 3 2 4 5 2 2 3 5 5 4 4 3 7 7 8 10 10 12 14 16 14 14 15 16 16 16 17 19 24 28 30 30 30 30 29 29 28 28 26 25 25 24 24 24 24 23 22 21 20 20 19 18 16 16 17 16 15 14 13 12 11 10 8 8 8 7 8 10 13 14 13 14 13 10 7 5
3 2 4 3 2 2 2 1 1 4 1 3 2 3 5 3 1 1 3 1 5 4 1 1 3 1 2 1 5 5 4 5 3 6 8 10 11 11 12 14 16 16 15 16 17 17 17 18 19 22 26 30 31 31 31 30 29 29 29 28 26 26 25 25 25 25 24 23 22 22 21 20 19 17 16 17 17 16 15 14 13 12 9 9 10 10 9 11 13 14 15 15 15 12 9 6 6
3 3 5 3 1 2 1 2 2 2 3 4 3 2 4 6 0 1 4 3 4 3 1 2 2 1 3 4 7 5 6 6 4 6 8 10 11 12 12 14 16 16 16 17 18 19 19 19 20 21 24 28 30 31 31 31 30 29 28 28 27 26 26 25 25 25 25 24 22 22 22 21 20 18 17 18 18 18 17 15 14 12 10 10 11 11 11 12 13 14 15 15 14 12 9 7 7
3 4 4 2 1 1 3 3 3 2 5 6 5 4 1 7 3 2 1 3 3 4 2 4 3 1 4 5 6 7 8 7 5 7 8 10 12 12 13 15 16 16 17 18 20 21 21 21 21 22 24 26 28 30 31 31 30 29 28 29 28 27 26 26 25 25 25 24 23 22 22 22 21 19 17 18 19 19 18 17 14 12 11 11 12 12 12 13 13 14 15 15 15 13 10 8 9
4 4 3 0 3 3 5 6 5 3 3 6 4 2 2 5 5 4 3 2 4 6 6 4 4 5 7 10 12 12 11 8 7 8 9 11 11 12 15 16 17 18 19 20 21 22 23 23 23 23 24 25 27 29 31 31 31 30 29 29 28 27 26 26 26 25 25 25 24 23 23 23 22 20 19 19 19 19 19 17 15 13 12 12 12 12 12 13 13 13 14 15 16 14 11 10 10
4 3 2 2 5 5 5 6 5 3 3 5 5 2 3 5 4 3 3 6 7 8 9 4 4 7 7 10 11 11 10 8 8 10 11 13 13 14 17 17 19 21 21 21 22 22 23 24 24 25 25 25 26 28 29 30 31 30 30 29 29 29 28 27 27 26 26 25 25 24 23 23 23 22 20 19 19 19 19 18 16 14 14 14 13 13 12 13 14 14 14 15 16 14 12 11 12
1 4 1 5 6 4 5 6 6 6 3 4 6 2 2 5 4 1 3 7 7 7 9 4 6 8 6 6 6 8 8 8 9 10 12 14 15 15 16 16 17 19 20 20 21 22 24 25 25 25 25 26 26 27 29 30 30 30 30 30 30 30 29 28 28 28 27 26 25 25 24 23 23 23 21 20 21 21 21 20 18 16 17 15 14 14 13 13 14 14 14 16 16 13 13 13 13
1 4 3 6 3 2 6 6 7 6 3 3 4 3 4 5 2 1 3 6 8 8 8 6 7 10 8 5 6 9 9 9 9 10 12 14 15 15 16 17 17 18 19 19 21 22 23 25 25 25 25 25 26 27 28 29 30 29 29 29 30 29 29 29 29 29 28 27 26 25 25 23 23 23 22 22 22 22 23 22 20 19 18 16 15 15 14 14 15 15 16 18 15 12 14 14 14
2 2 5 5 4 3 7 4 4 3 3 3 5 6 5 3 1 1 2 4 7 8 8 7 7 6 8 6 6 8 8 8 8 9 10 12 15 16 17 18 19 20 20 21 21 21 22 24 25 25 25 25 26 27 28 28 29 29 29 29 29 29 29 29 29 29 29 28 27 26 26 25 24 23 23 23 24 24 24 24 22 21 19 17 17 17 16 16 16 17 19 19 16 13 15 15 15
1 4 3 4 4 4 6 3 2 0 2 5 4 4 2 3 5 3 5 9 10 11 9 7 6 4 4 6 6 7 7 7 9 11 11 12 14 14 15 15 15 16 16 17 18 18 19 21 23 24 25 26 26 26 27 28 28 29 29 28 28 28 29 29 29 29 30 30 28 27 26 26 25 24 24 24 25 25 25 25 23 22 20 20 20 19 19 18 18 19 20 20 19 15 16 16 15
2 3 4 4 4 5 6 4 5 3 4 8 2 4 4 3 6 3 6 11 12 13 7 6 7 7 5 6 8 8 8 9 11 13 15 15 15 14 16 16 15 13 11 11 12 13 14 16 19 22 24 26 26 26 26 27 28 28 28 28 27 27 27 28 29 29 29 30 30 29 27 25 25 25 25 25 26 27 26 26 24 23 22 21 21 20 20 20 20 20 21 21 21 18 17 17 16
3 5 4 3 2 6 7 6 8 7 6 6 1 6 10 7 4 2 10 15 12 7 6 7 5 8 8 10 9 7 8 11 12 14 16 18 17 16 18 19 18 16 15 13 11 9 9 11 14 18 21 23 25 26 26 26 27 27 27 28 28 27 26 26 27 28 29 29 29 29 28 26 25 26 26 25 27 28 27 26 25 24 23 22 21 21 22 21 21 22 22 22 23 21 18 19 17
4 5 3 4 5 6 7 7 8 5 4 3 2 9 10 4 2 3 12 14 8 5 8 7 7 9 9 9 9 8 9 11 13 13 15 19 22 22 22 23 22 21 19 17 14 11 8 9 10 13 16 19 23 25 25 25 25 26 26 27 27 27 27 27 25 25 27 28 28 27 27 27 26 27 26 25 27 27 26 26 26 24 23 21 22 23 23 23 23 23 23 23 24 23 20 20 19
4 3 4 6 7 7 4 7 8 3 4 5 5 10 8 4 1 3 10 5 5 9 8 7 9 9 8 8 8 9 10 13 15 15 17 22 24 25 25 25 25 23 21 20 18 15 11 7 7 8 10 15 20 22 23 24 24 24 24 25 25 26 26 26 26 25 24 26 27 26 26 26 27 28 27 26 27 26 25 25 25 24 23 23 24 25 24 24 24 24 24 24 25 25 22 20 20
2 1 5 7 7 8 6 7 8 2 3 5 7 6 5 3 0 7 8 3 8 8 7 8 10 7 7 8 7 9 11 14 18 18 19 20 21 22 23 24 24 23 23 22 21 18 14 7 4 4 6 10 15 19 20 22 22 22 22 23 23 23 23 23 23 24 25 25 26 27 26 26 26 27 27 27 27 27 27 27 26 26 26 26 25 25 24 25 25 24 24 24 24 25 24 22 21
1 2 4 8 7 8 8 4 3 0 2 4 6 3 6 1 6 11 5 6 7 8 8 7 8 6 7 7 7 8 10 15 19 19 18 18 19 20 21 22 23 23 23 22 22 20 17 12 7 3 3 5 10 14 17 18 19 20 20 21 21 21 21 21 22 22 24 26 26 27 26 25 25 26 27 28 27 27 27 27 28 27 27 26 26 25 25 25 25 25 24 24 25 25 25 24 23
1 2 1 5 7 7 8 1 3 2 2 3 4 3 7 6 10 11 4 6 7 9 7 6 6 5 6 6 6 7 11 15 17 18 19 19 20 20 22 22 23 23 23 23 24 24 21 17 12 8 5 4 5 8 12 14 15 16 17 18 18 18 18 20 21 21 23 23 24 23 23 22 22 24 25 26 26 27 28 28 28 28 27 27 27 27 26 26 25 25 24 24 25 25 26 25 24
2 2 1 3 2 5 7 1 0 3 2 1 3 2 6 8 12 10 4 6 8 8 5 5 5 5 5 5 6 6 9 13 15 18 20 21 21 21 23 23 24 24 24 25 25 25 24 21 18 14 11 8 5 4 6 8 10 11 12 13 14 15 16 17 18 20 20 20 21 21 21 21 21 22 23 24 25 27 28 28 28 28 28 28 28 27 27 26 25 25 24 24 24 25 26 25 25
2 1 3 3 2 5 9 5 3 1 2 2 4 2 6 8 12 10 3 8 8 7 4 6 5 6 6 5 6 5 6 12 17 20 22 22 22 22 23 24 25 26 26 26 25 26 25 25 23 20 18 15 12 8 6 4 5 5 6 7 8 10 11 13 15 16 18 19 21 21 21 21 21 21 22 23 24 24 25 26 27 27 28 28 27 27 26 26 25 25 24 24 24 25 25 26 26
3 1 4 3 3 3 7 5 1 1 2 3 1 2 5 6 10 10 5 8 7 4 4 6 6 6 6 5 5 5 6 9 14 20 23 22 22 22 23 24 25 26 27 27 27 27 27 27 25 24 23 21 18 15 12 9 6 4 3 3 3 5 6 8 10 12 14 16 17 18 19 19 19 19 20 21 22 23 24 25 26 27 27 27 26 26 25 25 25 24 24 23 24 24 25 26 26
3 0 3 4 4 3 4 4 3 5 4 2 1 1 7 9 11 11 6 6 6 4 5 6 6 5 5 5 5 6 7 8 10 17 21 22 22 22 22 24 25 26 28 28 28 28 28 28 27 26 24 23 22 20 18 16 13 11 10 8 7 6 5 3 4 6 8 10 12 14 16 17 18 19 20 21 22 23 25 25 26 26 26 26 26 25 25 25 24 24 23 23 23 24 25 26 26
4 3 3 4 3 4 4 4 3 5 4 2 2 3 9 11 12 10 7 6 6 6 6 6 6 6 6 6 6 6 7 8 10 16 20 21 22 23 23 24 26 27 28 28 28 28 28 28 27 26 25 23 21 20 20 19 18 18 17 16 16 16 16 14 12 9 7 5 6 7 11 13 16 18 19 21 21 23 24 25 25 25 25 24 25 25 25 25 24 24 24 23 23 24 24 25 25
7 5 4 4 4 5 5 5 5 2 4 5 4 6 8 10 11 8 8 7 7 7 5 6 6 6 6 6 6 6 7 7 11 16 20 21 22 23 24 25 27 28 28 28 28 29 29 28 28 28 26 24 21 19 18 17 18 19 19 20 21 22 21 21 21 20 19 18 15 13 10 9 8 10 12 14 16 18 20 21 23 24 24 24 25 26 26 26 25 25 24 23 23 23 24 24 23
4 2 2 4 5 6 5 5 5 1 0 5 4 4 7 9 9 7 8 7 9 8 6 7 6 6 6 6 6 6 7 7 11 17 20 22 23 24 25 27 28 29 30 30 30 31 30 29 29 30 28 25 24 23 21 20 19 20 21 22 23 23 22 22 23 24 23 23 22 21 20 19 17 14 11 9 8 9 10 12 14 16 18 19 21 23 24 25 24 24 23 22 22 22 23 23 23
2 2 3 4 5 6 7 5 5 1 2 4 2 3 8 9 6 6 6 7 8 7 6 7 6 6 5 6 7 6 5 6 10 15 19 22 23 24 26 28 29 30 30 31 31 31 30 30 31 30 28 26 26 25 24 24 22 21 21 22 22 22 22 23 24 23 22 22 22 22 22 22 21 21 19 17 16 14 13 11 10 9 11 12 15 17 18 19 20 21 21 21 21 21 22 21 21
2 2 1 4 4 4 7 5 4 2 2 3 2 2 9 8 3 6 6 7 6 6 7 6 6 7 6 6 6 6 6 7 8 11 16 20 22 24 26 28 29 29 30 32 32 31 31 31 31 30 28 27 26 24 24 24 23 22 21 21 21 22 24 24 23 22 21 21 21 21 20 20 20 20 19 19 18 19 18 17 16 15 13 12 12 12 13 15 16 17 19 19 18 17 18 19 20
3 3 2 4 3 1 4 4 4 2 1 2 2 2 7 4 4 6 6 5 6 7 8 7 6 7 6 6 5 6 7 7 7 8 12 17 21 24 26 27 28 30 33 33 32 32 32 31 31 30 29 29 27 26 24 23 22 21 21 21 20 21 21 20 20 21 21 21 21 21 21 20 19 18 18 17 17 18 18 19 18 18 17 16 15 15 14 14 15 16 17 18 17 16 17 18 19
3 5 5 5 5 5 6 4 4 3 2 2 1 3 5 3 1 2 3 4 6 6 7 8 7 6 6 6 6 6 6 6 6 6 9 14 19 22 25 25 28 31 32 31 31 32 32 32 31 30 29 29 28 26 24 22 21 20 20 20 21 21 22 23 23 25 24 23 23 22 22 20 19 19 18 18 17 17 17 17 17 17 18 17 17 17 16 15 15 16 17 17 17 17 17 17 16
4 5 9 10 8 7 6 3 4 4 3 3 4 3 4 5 4 2 4 4 5 5 6 7 6 6 6 6 6 6 5 5 5 6 8 12 16 19 23 26 27 29 28 28 29 30 32 32 32 32 31 30 28 26 25 23 24 24 25 26 26 27 28 28 27 27 26 24 23 22 21 20 20 20 19 19 18 18 17 17 16 16 16 17 17 17 16 16 16 16 16 16 17 17 18 17 17
2 4 8 9 6 5 4 2 1 0 2 3 3 1 5 5 6 3 4 5 5 4 6 6 5 5 5 5 5 4 5 5 5 6 9 12 15 18 22 24 25 26 25 27 29 31 33 33 34 34 33 32 30 28 26 26 27 27 27 28 28 28 27 26 24 24 24 22 20 20 20 20 20 20 20 20 20 19 18 18 17 17 17 17 16 16 17 17 16 15 15 16 17 17 17 18 19
3 4 5 6 6 6 6 5 3 2 2 4 3 1 3 4 5 4 5 7 5 4 4 4 3 4 4 4 4 4 4 4 4 5 7 11 15 16 18 21 23 23 24 27 30 31 32 33 34 34 34 33 32 31 30 30 30 29 29 29 29 28 27 25 23 22 22 20 20 21 20 20 20 19 19 20 20 20 19 19 19 18 17 18 17 17 17 17 16 15 15 15 16 17 17 18 20
6 3 6 6 6 6 5 5 2 1 1 4 4 1 1 5 5 3 4 4 1 1 2 1 2 2 3 3 3 3 3 3 4 4 6 10 13 15 17 19 22 23 25 27 28 29 31 32 33 33 34 33 32 31 31 31 31 31 31 31 31 29 28 27 26 26 26 25 26 26 25 24 23 22 20 19 19 19 19 19 19 19 18 18 18 17 17 17 17 17 16 16 16 16 16 16 18
4 5 7 5 6 5 4 5 3 2 1 4 6 4 2 5 5 3 2 2 3 3 4 3 3 2 2 2 1 2 3 3 4 5 7 10 12 14 16 19 22 23 25 26 27 28 29 30 30 32 32 32 31 30 30 31 30 30 31 31 31 30 29 29 29 30 30 30 30 31 31 30 30 29 28 26 24 22 20 19 18 19 19 18 17 17 17 17 17 17 17 17 17 17 16 16 16
4 6 5 5 5 4 3 2 4 2 3 6 6 6 5 3 5 3 3 1 2 3 4 4 3 2 1 1 1 1 2 3 3 4 8 11 12 14 17 20 21 22 23 25 26 26 27 28 28 30 30 29 29 29 29 30 29 30 30 30 31 30 29 29 31 32 32 31 32 32 31 32 32 32 32 32 31 29 27 24 22 20 19 18 18 18 18 18 17 17 17 17 17 18 18 18 17
5 4 4 3 3 3 4 4 3 1 5 5 4 4 5 4 4 3 2 2 2 3 4 7 7 5 4 3 3 1 2 2 3 4 6 9 11 13 17 19 19 21 23 23 24 24 25 25 26 28 28 27 27 27 27 28 29 29 29 29 30 30 29 30 31 32 31 31 32 31 31 31 31 32 32 33 33 32 31 30 28 26 25 23 21 20 19 18 18 17 18 18 18 18 18 18 19
5 4 4 3 3 3 3 3 0 3 6 3 2 2 4 5 5 2 3 4 4 5 5 9 10 8 6 5 4 2 1 2 3 3 4 6 8 10 13 15 18 20 21 21 22 22 23 23 24 26 26 25 25 25 26 27 28 28 27 28 28 28 28 29 29 30 29 30 30 30 31 31 31 32 32 32 31 31 31 31 31 30 30 28 26 25 23 21 20 19 18 18 18 18 18 18 18
4 5 4 3 2 0 3 3 2 4 4 2 2 1 1 5 3 2 3 4 4 6 3 8 9 8 7 6 4 3 1 1 2 2 2 4 6 8 11 13 16 18 19 19 20 20 21 22 22 24 24 23 23 24 25 25 26 26 25 26 26 26 26 27 27 27 27 27 28 29 29 29 30 30 30 29 29 28 28 29 29 29 29 29 29 28 27 26 25 24 22 21 20 19 18 18 18
3 4 5 4 4 4 4 4 3 4 3 2 2 1 2 3 1 2 3 2 3 3 2 7 7 6 5 4 3 3 2 1 1 1 2 3 6 8 10 13 15 16 17 18 19 19 20 21 21 22 22 22 22 22 23 23 24 23 23 24 24 24 25 25 25 25 25 25 26 26 26 26 26 26 25 25 25 26 26 26 26 27 27 28 28 29 28 28 28 27 26 25 24 23 21 20 19
2 2 4 2 4 5 2 3 4 3 2 3 2 2 4 3 2 1 1 3 3 3 4 6 5 5 4 4 4 4 4 3 3 3 3 3 6 8 10 12 14 15 16 17 17 17 18 19 19 20 20 20 20 20 21 21 21 21 22 22 22 22 22 22 23 23 23 23 23 23 23 23 23 23 24 24 24 25 25 25 25 25 25 26 26 27 28 28 28 28 28 27 27 26 26 24 23
2 2 3 4 4 6 3 2 1 3 1 3 1 2 4 1 0 0 3 3 3 2 3 6 6 5 5 5 5 5 4 4 4 4 5 5 7 8 10 12 13 14 15 15 16 16 16 16 16 17 17 17 17 17 17 18 18 19 20 20 20 20 20 21 21 21 21 21 21 22 22 22 23 24 24 25 25 26 26 26 25 25 25 25 25 26 26 27 27 28 28 28 28 28 27 26 26
4 2 5 3 2 4 3 1 3 3 3 4 1 4 4 1 2 1 2 2 3 4 5 5 5 5 6 6 6 5 5 5 5 5 6 7 8 9 10 11 12 13 13 14 14 13 13 14 13 14 14 14 14 14 14 15 15 16 17 17 17 18 18 18 18 19 19 19 20 21 22 23 24 25 26 27 27 28 28 28 27 27 27 26 26 26 26 27 27 27 27 28 28 29 28 27 26
4 3 3 3 2 1 2 2 2 1 3 4 3 3 3 4 4 3 5 7 7 7 6 6 7 7 7 7 6 6 5 5 5 5 5 7 9 10 10 11 11 11 12 12 11 11 11 11 11 11 11 11 10 10 11 12 12 13 13 14 14 15 15 15 15 15 16 17 18 20 20 22 23 25 27 28 29 29 30 29 29 29 29 29 29 28 28 28 27 27 28 28 28 28 29 29 28
2 1 0 1 2 3 2 2 3 2 2 3 5 4 3 5 5 7 10 11 11 10 8 8 9 9 8 7 7 7 6 6 6 5 5 8 10 10 10 10 10 10 9 9 9 8 9 9 8 8 8 8 8 9 9 9 10 10 10 10 10 11 11 11 11 12 14 15 16 18 19 21 23 25 27 29 30 30 30 30 30 30 31 31 31 31 30 30 30 29 28 28 28 28 28 28 28
2 2 2 1 0 2 1 1 3 3 2 2 4 5 5 4 3 7 9 10 12 12 11 10 10 10 9 8 7 7 7 7 6 5 6 9 11 11 10 9 8 8 7 7 6 6 6 6 6 7 7 7 8 8 8 7 7 7 7 7 7 7 8 9 10 11 13 14 16 18 20 22 24 25 27 29 30 30 30 30 30 31 31 32 32 33 33 33 32 32 30 29 29 28 28 28 27
5 5 5 4 3 3 1 3 1 2 2 4 4 6 7 4 1 4 6 9 11 11 11 10 10 10 10 8 7 7 7 7 6 6 7 10 12 12 11 9 8 7 6 6 5 5 6 6 6 6 7 7 7 6 6 6 5 5 5 6 6 7 8 10 11 12 14 15 17 19 21 23 25 27 28 29 30 31 31 30 30 31 32 32 33 34 34 34 34 33 33 31 30 29 28 28 27
Wind_Direction
331 330 325 317 311 308 310 67 72 325 71 67 313 30 242 207 209 241 284 292 313 262 215 159 133 132 96 159 192 197 182 176 170 127 199 239 280 208 183 182 166 168 182 180 182 187 187 183 184 187 189 189 187 188 190 190 191 193 192 192 189 187 184 188 189 176 169 161 156 157 157 155 154 155 154 152 153 157 160 157 150 144 141 138 145 147 142 135 128 128 116 105 107 110 113 110 108
334 329 328 313 314 336 253 81 88 341 53 72 282 174 257 308 312 223 221 227 217 266 289 161 132 86 53 102 151 146 228 221 192 174 263 260 272 205 185 188 179 166 184 183 182 186 190 187 184 188 191 191 191 190 193 193 193 195 194 194 193 194 191 190 191 179 170 166 162 162 168 165 161 162 163 163 162 161 160 162 158 151 147 146 158 161 151 139 126 125 116 105 108 116 122 123 122
332 325 334 318 309 33 60 46 92 57 72 117 279 242 291 5 228 232 218 220 235 277 310 189 129 123 71 29 82 132 263 261 222 220 284 242 226 206 191 195 189 174 186 188 186 187 192 191 187 189 193 193 194 194 195 197 196 195 195 197 195 195 194 192 190 180 174 172 169 170 174 173 170 168 172 175 171 166 162 167 166 160 153 156 166 162 151 132 118 119 116 102 101 125 144 151 152
331 324 334 338 351 32 59 42 122 115 109 180 285 265 261 193 226 245 235 244 259 297 323 130 86 215 108 5 263 141 278 280 236 198 270 221 201 206 194 196 195 184 187 193 192 190 194 195 191 190 194 195 196 196 197 198 198 198 197 199 198 196 196 194 191 184 181 179 178 180 180 180 179 175 182 183 174 173 175 176 174 172 161 165 170 161 150 130 117 119 147 149 120 259 249 234 222
334 324 338 11 95 37 88 73 104 101 166 185 101 274 247 207 229 250 264 286 279 273 280 107 3 294 110 207 170 143 251 275 264 209 237 228 201 200 192 198 198 189 188 194 195 194 196 197 195 193 195 196 197 199 199 198 198 200 201 201 201 200 201 199 194 188 186 186 185 188 189 187 185 184 188 183 175 177 185 187 183 182 172 169 171 163 145 130 129 138 231 267 271 265 263 255 250
345 330 358 47 92 94 97 89 101 308 217 174 136 259 249 214 218 239 287 316 299 253 212 87 3 337 322 258 195 202 224 318 301 219 233 219 203 197 192 202 201 194 189 192 196 197 198 199 198 196 197 198 199 201 201 200 199 201 204 204 203 203 204 204 199 194 192 191 190 192 195 190 186 188 191 187 180 181 187 192 191 183 180 176 168 161 143 138 137 44 312 295 281 275 268 257 251
358 342 8 56 47 37 89 121 175 243 227 174 179 247 258 242 218 243 323 340 327 311 126 105 5 67 293 303 302 245 239 240 247 242 226 195 203 198 193 207 206 196 190 193 197 199 200 200 201 199 199 200 199 203 204 202 201 202 206 207 206 206 206 207 203 198 197 196 196 196 197 193 189 189 194 197 188 181 183 187 193 188 183 170 154 151 148 154 142 334 339 310 288 294 284 261 249
10 5 32 77 30 30 83 121 217 223 258 224 230 241 260 255 214 153 324 47 307 310 334 331 18 65 283 4 325 266 278 254 259 258 209 187 201 200 198 210 212 198 192 197 198 201 203 203 204 202 201 202 201 203 206 205 204 205 208 208 208 208 206 208 204 198 199 199 201 200 199 197 197 196 197 206 197 181 182 185 191 195 184 158 153 162 166 183 260 279 307 304 296 313 311 275 252
24 23 96 72 71 32 46 11 291 242 271 289 283 259 268 253 195 170 189 350 315 283 295 296 39 345 299 349 286 275 323 278 266 232 194 185 197 201 205 211 216 206 197 199 201 203 204 205 206 205 204 204 202 203 208 208 207 208 210 210 209 209 207 208 204 200 200 201 203 201 201 204 205 203 201 209 207 187 183 188 189 197 190 177 187 195 195 208 247 280 284 282 293 307 311 293 266
33 23 112 61 79 38 12 307 299 253 267 284 286 260 267 265 200 41 80 22 298 291 298 266 93 300 311 316 279 297 332 286 250 197 187 184 193 201 210 212 218 216 208 204 203 207 207 209 208 208 208 206 205 204 209 211 209 209 212 213 211 211 209 206 201 200 202 202 204 203 203 208 212 209 204 208 209 196 187 190 194 200 198 199 211 216 218 226 233 279 278 273 288 297 304 298 277
35 358 92 72 68 52 91 240 291 282 284 297 291 260 240 238 153 30 44 1 287 293 308 69 86 238 3 304 272 282 309 288 221 186 188 186 196 205 210 213 219 220 222 216 208 209 210 212 211 211 210 209 207 206 210 211 210 211 213 214 212 212 212 205 198 201 204 204 205 205 206 210 217 216 208 208 209 202 194 193 198 203 207 215 229 233 239 245 250 276 274 274 283 290 303 300 276
68 344 60 82 111 174 187 220 283 287 307 328 308 297 205 191 94 336 298 308 303 315 277 200 158 167 65 303 270 295 322 303 219 193 198 197 205 208 211 214 220 222 224 225 218 213 212 214 214 213 212 212 210 209 212 211 211 211 213 215 213 214 213 205 200 203 206 207 207 206 208 212 217 220 215 212 209 203 201 203 204 205 210 225 244 251 258 265 269 262 260 268 275 282 296 295 266
100 113 78 80 152 158 172 210 273 303 335 338 259 301 1 183 289 242 199 232 282 329 272 214 157 98 195 270 292 316 335 332 205 205 214 209 209 209 215 216 221 225 222 225 225 221 216 215 215 215 214 214 213 212 214 214 213 213 213 215 214 214 212 207 204 205 207 209 211 209 210 214 219 222 221 218 212 205 205 212 215 216 221 241 256 255 260 259 248 245 251 261 267 277 287 280 249
129 148 104 99 62 125 178 259 319 57 348 309 277 302 335 262 248 197 144 343 275 223 270 199 148 105 262 294 324 306 332 360 211 223 231 219 214 211 216 217 219 223 224 226 228 228 223 219 217 217 216 215 215 215 217 218 217 215 215 216 216 215 213 211 208 208 209 210 213 212 213 216 221 224 223 220 215 209 209 215 221 226 231 242 251 250 246 237 232 238 248 255 261 269 274 262 236
132 127 89 107 27 0 195 251 51 112 211 295 308 308 334 287 197 98 165 245 267 224 297 224 141 232 240 252 280 263 321 346 274 248 241 228 220 214 218 217 217 221 226 228 230 232 229 226 222 219 219 218 218 217 219 221 220 219 217 218 218 218 216 214 213 212 212 213 214 215 216 218 222 226 224 219 215 213 216 220 222 226 234 235 243 251 247 243 242 244 247 252 259 262 260 246 226
116 109 68 79 38 342 207 182 108 108 246 258 290 330 339 297 303 35 223 170 276 286 22 235 191 272 201 200 251 280 341 335 294 265 243 234 227 219 220 216 217 222 226 229 230 233 233 232 228 224 222 221 221 221 221 222 223 222 220 221 220 220 220 217 216 216 216 217 217 217 219 220 223 228 225 220 216 217 222 224 225 228 236 238 244 255 254 253 253 252 252 254 258 255 249 238 223
68 75 70 49 170 220 211 192 174 167 260 270 317 18 24 298 305 287 240 116 276 297 334 253 248 246 195 225 275 315 332 317 287 259 239 235 232 226 224 219 222 226 227 228 231 233 233 233 232 229 226 224 224 224 224 224 225 225 223 224 224 223 222 221 220 219 220 221 222 222 222 224 226 228 226 222 220 221 223 224 228 234 241 243 247 255 256 259 259 258 258 258 257 249 241 234 223
53 76 99 298 198 203 189 186 196 180 269 272 318 20 184 281 306 314 324 1 325 313 302 264 272 277 248 265 284 301 307 299 272 244 231 230 231 231 230 225 224 229 230 230 232 232 232 234 234 233 230 227 226 226 226 225 226 226 225 225 226 227 225 224 223 223 224 223 224 225 225 227 227 229 228 225 224 224 224 226 232 239 246 246 250 256 255 261 264 262 263 262 257 245 236 231 223
79 113 109 240 203 213 196 184 203 202 253 266 299 309 208 248 280 341 305 296 334 323 299 297 296 292 282 279 283 294 297 284 259 237 232 231 230 234 238 236 231 234 236 235 235 235 234 235 234 234 234 231 228 228 228 227 227 227 227 226 226 228 228 227 226 226 227 227 226 227 228 228 229 231 230 228 229 228 229 231 234 242 250 250 251 255 254 259 265 266 264 265 259 240 229 226 220
139 121 109 244 214 237 233 199 214 229 246 281 295 298 207 251 253 319 299 294 316 297 281 297 307 306 307 296 306 311 298 277 256 239 241 244 245 244 249 253 248 248 250 248 244 240 238 237 237 236 236 233 231 230 230 229 227 228 229 228 227 229 230 229 228 229 229 230 228 228 229 229 230 231 230 229 229 229 231 233 235 242 247 248 250 252 252 256 262 267 263 267 264 235 222 222 217
158 134 182 229 191 247 255 220 222 235 217 227 279 329 308 279 230 248 327 323 310 282 261 231 257 292 310 323 327 313 297 277 262 255 261 267 274 275 275 278 276 274 273 269 258 248 242 241 241 240 238 235 233 233 231 231 230 229 230 230 229 229 231 231 230 231 231 231 231 230 230 230 231 232 230 229 229 229 230 231 234 239 241 242 248 250 250 252 256 261 260 267 266 230 218 220 216
154 219 207 202 153 237 269 240 210 208 194 249 303 321 304 303 303 241 274 285 273 270 269 247 245 286 317 320 315 312 309 303 305 305 303 307 311 309 306 302 297 292 287 282 275 265 253 247 244 242 242 239 236 236 234 234 232 230 231 232 232 230 231 232 232 232 232 232 232 232 232 232 232 231 231 230 231 231 230 231 232 235 237 241 248 249 250 252 252 256 259 266 266 238 219 218 217
197 274 265 226 184 229 282 294 252 267 329 285 294 302 312 5 307 255 221 239 244 257 270 288 308 358 337 317 343 358 359 359 12 11 6 2 353 350 347 341 328 314 300 293 290 282 268 256 250 244 243 243 241 239 237 236 235 233 232 232 235 235 234 234 235 234 234 234 234 234 233 233 232 231 232 232 233 234 233 233 233 234 238 244 248 251 252 254 254 255 258 262 263 248 227 220 218
168 261 299 265 203 221 263 289 285 295 280 265 274 316 296 275 284 295 258 250 248 263 294 337 344 26 31 21 30 34 38 35 35 34 33 27 17 15 15 14 8 353 334 318 306 293 279 265 257 250 245 244 244 241 239 239 238 236 234 232 233 236 237 237 237 237 236 235 236 236 236 236 235 233 233 234 236 236 236 236 235 237 240 244 248 251 254 256 256 256 258 259 259 253 237 226 221
177 228 276 282 242 246 269 290 284 282 267 259 285 286 270 244 237 294 269 264 264 276 7 19 19 41 46 47 40 39 43 34 27 25 28 25 20 22 22 20 19 15 7 357 341 318 293 268 257 253 248 245 244 242 241 241 241 239 237 236 235 234 235 237 239 239 239 238 237 238 238 238 237 237 237 238 239 238 237 237 237 238 240 243 249 254 256 257 258 258 258 258 257 255 244 232 226
212 212 268 299 295 287 294 290 273 267 255 243 258 272 277 269 190 250 258 261 293 15 42 20 44 53 49 51 40 36 36 29 19 15 18 20 22 21 17 16 17 15 10 8 3 350 323 280 258 252 251 249 244 242 243 243 243 242 241 240 237 236 236 236 238 239 240 239 239 240 241 241 240 241 241 241 241 239 237 236 236 238 240 246 254 257 258 260 261 260 259 258 257 255 249 240 233
199 200 265 269 280 287 272 266 269 257 247 225 230 266 286 310 74 264 264 259 15 36 31 18 59 63 50 48 38 37 35 28 19 18 19 16 18 14 11 13 13 15 14 15 16 7 353 308 267 253 252 252 246 242 244 245 245 246 247 245 242 241 241 239 238 239 241 241 241 242 242 242 242 244 246 244 242 242 242 242 241 241 245 252 255 256 259 262 263 263 262 260 260 258 255 248 241
177 227 298 283 299 297 255 260 279 286 269 210 191 254 300 355 164 237 256 21 46 50 35 33 65 63 50 48 37 38 32 27 23 26 23 12 12 9 10 12 11 17 23 24 24 18 11 351 303 270 258 256 250 246 246 246 248 250 250 250 249 248 247 245 242 240 241 243 245 245 244 244 244 245 246 247 246 246 248 248 247 246 250 253 254 256 259 261 261 261 260 259 259 258 257 253 248
168 36 321 301 343 319 273 270 293 119 249 194 160 290 309 273 229 242 271 11 28 61 52 45 67 58 49 46 38 40 28 26 27 27 20 12 13 12 15 18 17 24 30 34 35 33 29 23 15 348 309 277 261 253 249 248 249 251 253 255 256 254 250 248 246 243 243 244 247 248 250 250 248 247 247 246 247 249 250 250 249 250 253 255 255 256 256 256 256 257 257 257 256 254 253 253 252
290 29 20 306 357 320 281 43 37 350 245 189 145 288 287 263 252 262 322 6 18 55 55 51 67 58 48 45 42 41 29 28 27 23 17 16 18 18 22 25 29 32 37 44 45 44 42 39 38 34 24 352 298 268 258 254 254 254 256 258 258 258 255 252 250 250 250 250 253 253 254 257 256 252 250 249 249 250 250 249 250 253 257 258 257 256 254 253 253 255 257 257 255 252 252 252 253
311 332 10 340 351 280 295 348 17 325 330 128 124 217 265 277 279 285 354 32 23 34 53 69 71 62 52 43 45 40 33 31 26 22 20 20 21 24 27 30 36 40 43 49 50 51 51 50 51 51 50 42 23 334 288 274 270 267 265 266 266 265 262 261 259 258 257 257 258 256 254 258 261 259 255 253 251 251 251 252 254 258 259 258 256 255 253 251 251 254 257 257 255 252 251 252 253
22 297 303 339 206 265 310 309 190 245 339 61 119 207 271 276 281 287 21 47 22 13 45 78 76 65 55 41 44 39 32 31 27 24 21 23 25 26 30 33 39 42 46 50 53 56 57 57 58 59 59 56 52 43 22 344 308 298 289 283 278 274 268 266 264 263 263 261 260 260 259 258 259 261 260 258 256 256 256 259 261 263 262 260 257 255 252 251 251 252 255 257 257 254 252 252 253
354 197 251 270 223 276 319 322 27 58 27 24 129 225 284 280 275 284 20 36 10 25 67 81 79 65 58 48 43 39 29 28 25 20 18 22 26 29 34 37 42 45 48 53 55 57 58 58 59 61 61 60 60 58 54 50 41 30 360 327 305 286 275 270 268 267 267 266 265 267 268 267 266 266 268 267 266 265 263 264 265 264 264 263 260 257 254 253 251 251 254 257 257 256 255 253 254
309 335 226 247 222 224 297 306 348 37 58 338 310 217 260 271 277 291 355 3 341 53 96 96 83 71 63 56 47 41 34 31 22 14 15 21 27 33 39 41 46 50 53 55 57 59 59 59 60 62 63 64 65 66 66 65 67 69 68 65 60 52 36 356 311 287 278 274 271 270 269 269 269 268 268 266 266 266 264 263 263 263 265 266 263 258 254 252 250 251 253 256 257 256 256 256 257
219 213 211 257 248 227 253 266 297 10 26 299 302 267 261 272 280 296 337 341 353 49 102 105 85 77 65 54 51 43 38 38 22 14 18 25 29 35 41 45 49 52 55 57 59 61 61 61 62 62 62 63 67 72 75 75 75 73 72 72 67 62 58 54 50 40 28 1 324 299 282 275 270 267 265 263 262 262 261 262 261 261 262 263 261 257 252 251 252 253 254 255 255 254 255 257 259
193 199 185 209 249 252 242 246 262 349 352 293 271 264 268 278 283 310 342 353 24 38 82 89 74 72 63 54 52 41 43 37 19 20 26 30 33 37 42 47 50 54 56 57 60 60 60 60 61 60 59 60 64 68 72 74 73 69 66 66 63 61 60 60 57 53 51 46 41 34 19 358 324 295 281 273 267 262 260 260 259 257 257 256 255 254 253 253 253 254 255 255 253 252 252 254 256
147 164 188 209 233 266 265 262 273 124 289 277 264 271 277 278 289 331 346 4 28 24 61 75 64 64 56 54 50 39 42 31 21 27 31 33 36 41 44 47 52 55 56 57 58 58 58 59 59 58 57 59 62 63 65 66 66 65 64 64 63 61 58 58 57 55 54 51 48 47 43 39 32 26 15 354 330 305 286 275 268 263 259 255 253 253 254 255 255 256 256 256 254 250 250 251 251
136 206 255 264 237 258 265 257 287 35 146 266 337 336 284 276 307 352 5 34 27 14 60 70 63 68 54 51 46 36 38 24 25 28 29 33 37 41 44 46 49 50 50 53 56 58 60 60 60 59 58 60 62 64 67 67 68 70 72 72 70 67 63 60 58 56 55 52 49 46 43 39 36 36 34 29 25 19 10 359 343 320 298 281 266 260 259 258 257 257 255 254 253 249 249 250 247
189 182 225 268 247 275 284 281 319 38 126 270 337 342 282 286 26 33 31 57 43 27 57 59 61 67 51 46 38 31 35 24 25 23 23 31 36 41 45 45 47 48 49 51 55 58 60 60 60 60 61 61 62 66 70 71 73 74 76 77 76 74 69 66 64 60 57 53 48 44 41 37 33 33 31 28 27 26 24 21 18 10 360 346 324 307 294 285 278 271 264 259 255 251 248 247 245
178 165 160 251 251 263 280 295 338 15 101 270 245 260 279 296 73 65 50 77 77 56 61 58 55 62 54 50 41 34 35 26 23 18 19 29 36 40 43 43 46 49 49 49 52 55 57 59 61 62 62 62 63 65 70 75 78 78 78 78 77 77 72 69 65 58 53 51 47 43 40 38 35 33 30 27 24 22 21 19 18 15 13 10 3 355 342 327 312 298 287 275 266 259 255 253 249
239 204 186 228 237 210 229 281 343 352 13 359 11 324 295 305 18 95 87 83 74 56 57 54 41 46 52 50 45 36 35 27 21 18 16 28 36 40 43 45 48 50 50 49 51 55 58 60 62 63 64 64 63 64 66 72 76 76 76 74 71 68 62 56 52 47 46 46 45 42 40 38 36 34 31 29 26 23 20 17 15 12 11 10 7 7 3 354 340 325 312 296 282 271 266 268 263
287 233 205 218 223 213 230 315 9 18 351 334 24 4 292 316 324 191 135 65 53 42 42 49 34 31 39 40 38 27 28 27 20 27 27 31 38 42 45 47 50 52 52 54 57 60 62 64 65 66 66 65 65 65 65 66 69 68 68 66 62 58 53 48 45 44 45 46 45 43 41 38 35 34 31 29 27 25 24 21 19 16 14 12 10 8 5 3 356 343 331 318 305 291 278 276 275
298 246 203 210 199 179 188 157 88 121 259 293 42 83 263 316 323 243 143 81 57 45 40 44 33 34 41 36 32 20 18 18 18 32 35 37 40 42 44 46 50 54 56 61 63 63 65 65 67 68 67 67 67 68 67 67 68 68 68 68 65 62 58 53 50 49 47 46 45 44 41 39 35 32 30 27 24 22 21 21 21 21 20 19 17 14 11 8 3 355 346 334 324 312 293 279 276
250 238 145 152 157 161 168 142 140 211 252 316 15 109 260 291 287 265 129 104 60 47 45 42 42 46 49 36 26 19 10 7 19 32 35 38 41 43 45 49 53 58 61 65 65 64 65 65 67 68 67 67 67 67 68 68 70 70 71 71 69 67 65 62 59 56 53 50 48 46 43 40 36 31 27 22 20 17 16 16 15 16 18 18 17 18 17 13 8 2 357 349 338 328 312 292 282
242 198 111 119 136 146 136 111 109 1 24 312 307 108 278 265 268 325 96 125 75 132 182 143 107 87 67 55 23 8 359 3 24 39 41 41 44 49 53 56 60 63 65 66 67 67 67 67 67 68 66 65 65 65 66 67 68 69 69 70 69 67 66 65 63 60 58 55 54 52 49 47 44 40 34 28 22 17 13 12 11 12 12 13 12 12 12 10 8 4 0 357 350 342 332 316 299
216 127 94 68 72 82 76 95 112 49 55 249 244 184 194 269 276 323 90 180 242 196 188 189 160 137 94 81 20 355 2 11 24 42 50 51 53 57 62 64 65 66 68 70 71 70 69 69 68 68 66 65 64 64 64 65 65 65 65 65 65 64 62 61 59 57 54 53 53 51 50 48 47 45 42 39 35 30 24 17 13 11 10 9 7 6 5 3 2 1 357 354 351 346 341 336 323
124 101 72 37 34 56 53 65 95 65 268 246 234 198 184 267 284 246 160 170 245 194 167 179 179 164 160 192 247 318 6 11 14 35 50 58 63 64 67 68 67 69 72 73 72 71 71 70 70 69 67 66 65 63 64 64 63 63 63 63 62 61 58 57 55 53 50 49 49 47 47 46 44 43 41 39 38 35 34 30 25 19 13 8 5 4 2 359 356 353 350 347 346 344 341 339 334
97 89 74 42 341 19 27 357 50 119 252 261 265 205 170 218 261 232 224 307 280 225 190 179 177 181 190 204 215 238 1 13 18 28 46 56 60 62 65 67 68 72 74 74 73 73 73 72 72 72 69 67 66 65 64 64 63 63 63 62 62 60 58 57 56 54 51 48 47 44 43 42 40 39 37 36 34 32 31 31 29 27 23 18 14 9 3 358 353 347 345 344 343 342 339 338 336
82 95 89 79 319 349 354 313 329 229 249 264 275 164 164 234 241 210 276 307 299 273 224 179 170 178 188 198 200 186 21 27 39 35 41 53 59 62 67 70 71 74 75 77 77 76 75 74 73 73 72 70 69 67 66 65 64 64 63 63 63 61 60 59 57 56 53 50 47 44 42 39 37 36 34 32 30 28 28 27 26 25 24 22 20 18 15 10 4 358 353 349 347 345 342 340 337
140 146 129 127 150 201 276 271 270 267 265 268 263 160 206 268 259 203 265 292 294 290 229 166 163 173 180 188 186 165 112 62 58 56 60 75 81 78 78 79 78 79 80 80 80 78 77 76 75 76 76 73 71 70 68 67 67 66 65 65 64 62 61 60 58 56 53 50 47 45 43 40 38 36 33 31 28 26 25 24 22 21 19 18 17 16 17 16 14 12 8 3 358 353 346 342 337
177 160 135 148 156 170 227 226 211 252 283 298 285 221 194 220 216 219 245 305 322 333 90 131 147 169 173 170 173 170 161 151 135 141 141 114 101 94 90 88 86 86 86 84 82 80 79 78 77 77 77 74 71 71 70 70 71 70 67 66 65 63 62 60 58 55 52 49 46 44 43 40 38 36 33 30 26 24 22 20 19 17 15 13 11 10 10 11 11 11 11 9 6 2 355 348 342
217 130 111 164 181 160 192 204 176 188 305 296 246 226 217 185 162 201 124 42 25 41 95 126 150 170 166 172 186 187 182 184 187 181 176 143 116 106 101 98 95 92 90 88 85 82 81 80 79 77 76 74 70 68 68 69 69 68 66 65 63 61 60 58 55 52 49 46 43 41 39 36 34 30 27 25 22 20 18 16 14 12 10 8 6 4 3 3 4 3 3 3 2 2 359 356 352
169 131 177 215 175 127 122 264 46 78 273 272 201 235 285 328 195 315 71 62 54 92 141 155 173 182 181 195 197 193 195 195 195 193 185 159 130 117 111 106 102 99 94 91 88 85 83 81 79 78 76 73 70 68 69 67 65 64 62 61 58 56 53 51 48 46 43 40 38 36 33 29 26 22 19 15 13 11 9 8 7 5 4 2 0 359 358 357 357 356 356 355 355 354 353 353 352
128 182 214 191 120 96 100 248 347 36 248 274 210 210 249 243 237 318 64 146 179 198 192 184 197 200 198 206 203 199 200 199 203 202 190 166 142 127 120 113 107 105 99 94 90 86 85 82 79 79 77 75 73 70 69 66 63 63 60 57 54 50 48 45 42 38 34 31 29 27 24 21 18 13 10 6 3 1 359 358 357 355 354 353 352 352 351 350 349 349 348 348 347 345 344 344 344
129 196 203 114 144 168 94 162 229 244 242 282 286 237 229 211 202 197 201 195 190 198 198 196 207 207 207 211 207 208 205 202 207 201 195 179 156 139 130 123 116 112 106 100 96 90 86 82 77 76 75 75 75 71 68 65 63 63 59 54 50 47 45 41 37 33 28 24 22 18 14 11 8 4 360 357 354 352 350 349 348 347 346 345 344 344 343 343 342 342 341 340 340 339 337 336 335
74 133 29 45 165 169 148 154 164 185 223 273 293 298 266 231 197 184 198 190 176 183 189 197 206 204 206 206 198 201 201 201 203 195 194 181 162 149 140 133 126 120 114 107 103 99 94 88 84 85 83 84 81 73 69 66 64 61 56 52 46 43 41 35 30 26 20 18 14 9 6 3 0 357 353 351 349 347 345 343 342 341 340 339 338 338 339 338 337 337 336 335 335 334 333 331 330
144 168 202 252 153 134 197 200 127 139 177 223 269 280 268 252 195 184 194 180 172 180 182 190 202 203 206 207 198 198 200 202 201 191 188 180 167 158 149 141 134 127 122 118 117 117 114 112 112 108 99 94 86 77 73 69 65 60 54 49 40 32 29 23 19 18 14 12 8 3 360 356 354 352 350 348 345 343 341 339 337 336 335 335 334 334 335 335 335 334 334 333 333 332 330 329 327
162 186 202 190 164 131 187 246 219 132 170 182 206 260 267 261 208 180 177 171 176 183 179 183 201 205 206 211 205 201 202 203 199 187 182 181 176 170 162 158 153 144 140 139 142 145 142 136 127 113 100 91 83 75 69 63 58 48 37 31 18 9 7 5 5 5 4 2 359 355 352 348 347 346 345 343 341 339 337 335 334 332 331 331 331 331 331 332 332 332 331 331 330 330 327 326 325